Hourly Data Report for October 20, 2013

All times are specified in Local Standard Time (LST). Add 1 hour to adjust for Daylight Saving Time where and when it is observed.

PANGNIRTUNG
NUNAVUT

66°08'36.300" N
65°42'40.500" W
22.60 m
2403049
71826
WXP

Download Data

Hourly Data (October 2013)
Hourly Data Report for October 20, 2013
Temp Definition
°C
Dew Point Temp Definition
°C
Rel Hum Definition
%
Wind Dir Definition
10's deg

Wind Spd Definition
km/h
Visibility Definition
km
Stn Press Definition
kPa
Hmdx Definition


Wind Chill Definition


Weather Definition


TIME
00:00 1.9 0.0 87 8 2   101.35     LegendNANA
01:00 1.6 0.9 95 24 6   101.36     LegendNANA
02:00 1.6 0.8 94 24 2   101.38     LegendNANA
03:00 1.6 0.7 94   0   101.37     LegendNANA
04:00 1.6 0.9 95 5 2   101.37     LegendNANA
05:00 1.7 1.0 95 23 2   101.38     LegendNANA
06:00 2.3 1.0 91 11 4   101.38     LegendNANA
07:00 1.5 0.9 96   0   101.37     LegendNANA
08:00 1.7 1.2 96 5 2   101.39     LegendNANA
09:00 2.2 1.6 96 8 2   101.40     LegendNANA
10:00 2.2 1.6 96 8 2   101.38     LegendNANA
11:00 2.2 1.6 96   0   101.40     LegendNANA
12:00 2.5 1.8 95 26 4   101.40     LegendNANA
13:00 2.5 1.7 94 26 4   101.41     LegendNANA
14:00 2.2 1.7 96 24 6   101.44     LegendNANA
15:00 2.0 1.5 96 25 4   101.47     LegendNANA
16:00 2.1 1.5 96 11 4   101.48     LegendNANA
17:00 1.7 1.5 99   0   101.49     LegendNANA
18:00 1.7 1.5 99 8 4   101.47     LegendNANA
19:00 1.7 1.5 99 7 2   101.46     LegendNANA
20:00 1.6 1.5 99 8 4   101.47     LegendNANA
21:00 1.7 1.2 96   0   101.47     LegendNANA
22:00 1.5 1.2 98 24 2   101.46     LegendNANA
23:00 1.2 1.0 99   0   101.45     LegendNANA

Notes on Data Quality.

Legend

  • E = Estimated
  • M = Missing
  • NA = Not Available
  • ‡ = Partner data that is not subject to review by the National Climate Archives
Date modified: